Regional Weather Roundup
Issued by NWS Raleigh/Durham, NC

Home | Current Version | Previous Version | Text Only | Print | Product List | Glossary On
Versions: 1 2 3 4 5 6 7 8 9 10 11 12 13 14 15 16 17 18 19 20 21 22 23 24 25 26 27
000
ASUS42 KRAH 021110
RWRRAH
NORTH CAROLINA WEATHER ROUNDUP
NATIONAL WEATHER SERVICE RALEIGH NC
700 AM EDT MON MAY 02 2016

NOTE: "FAIR" INDICATES FEW OR NO CLOUDS BELOW 12,000 FEET WITH NO
SIGNIFICANT WEATHER AND/OR OBSTRUCTIONS TO VISIBILITY.

NCZ001-053-055-056-065-067-021200-
WESTERN NORTH CAROLINA

CITY           SKY/WX    TMP DP  RH WIND       PRES   REMARKS
ASHEVILLE      FOG       58  56  93 CALM      30.07R VSB 1/2
JEFFERSON      CLOUDY    59  56  91 CALM      30.08R
MORGANTON      FOG       63  63 100 CALM      30.06S VSB<1/4
HICKORY        PTCLDY    65  64  97 SW5       30.02R FOG
RUTHERFORDTON  FOG       64  64 100 CALM      30.04R VSB 1/2
MOUNT AIRY     CLOUDY    66  64  94 CALM      30.03R FOG
BOONE          CLOUDY    57  57 100 CALM      30.10R FOG
$$

NCZ021-022-025-041-071-084-088-021200-
CENTRAL NORTH CAROLINA

CITY           SKY/WX    TMP DP  RH WIND       PRES   REMARKS
CHARLOTTE      CLOUDY    67  64  90 CALM      30.03R
GREENSBORO     CLOUDY    65  64  97 SW6       30.00R
WINSTON-SALEM  CLOUDY    66  64  93 VRB5      30.02R
RALEIGH-DURHAM CLOUDY    67  65  93 SW5       30.00R
FORT BRAGG     NOT AVBL
FAYETTEVILLE   PTCLDY    69  66  90 S7        30.01R
BURLINGTON     PTCLDY    65  63  93 S5        30.00R
LAURINBURG     CLOUDY    69  65  86 SW7       30.02R
$$

NCZ011-015-027-028-043-044-047-080-103-021200-
NORTHEASTERN NORTH CAROLINA

CITY           SKY/WX    TMP DP  RH WIND       PRES   REMARKS
ROCKY MT-WILSO CLOUDY    68  66  93 S7        30.00R
GREENVILLE     CLOUDY    70  68  94 SW6       30.02R FOG
WASHINGTON     CLOUDY    68  67  96 S6        30.00R
ELIZABETH CITY CLOUDY    68  66  93 SW10      29.99R
MANTEO         NOT AVBL
CAPE HATTERAS  CLOUDY    68  67  96 SW7       30.03S
$$

NCZ078-087-090-091-093-098-101-021200-
SOUTHEASTERN NORTH CAROLINA

CITY           SKY/WX    TMP DP  RH WIND       PRES   REMARKS
LUMBERTON      CLOUDY    70  68  93 SW8       30.02R
GOLDSBORO      NOT AVBL
KINSTON        CLOUDY    70  68  94 SW10G16   30.02R FOG
KENANSVILLE    CLOUDY    68  67  98 SW5       30.03R FOG
NEW BERN       CLOUDY    68  66  93 S7        30.03R
CHERRY POINT   CLOUDY    71  69  93 S10       30.03S FOG
BEAUFORT       PTCLDY    69  68  96 SW9       30.04R
JACKSONVILLE   PTCLDY    69  67  93 S7        30.02R
WILMINGTON     MOCLDY    70  69  97 S7        30.04R
$$





USA.gov is the U.S. government's official web portal to all federal, state and local government web resources and services.